AAU CUBESAT

Satellite information

Favourite Embed

Satellite Type and Status

PAYLOADIN ORBIT

Key statistics

Satellite AAU CUBESAT at a glance.

Uptime

8098

Days in orbit

Revolutions

≈ 14.2

Per day

Orbit

SSO

Sun Synchronous Orbit

Inclination

98.7

Latest

Satellite identification and parameters

Extended collection of information and parameters for AAU CUBESAT.

Object identification

Identified? True

Debris? False

Object name: AAU CUBESAT

International designator: 2003-031G

Object number (NORAD): 27846

Object ID (CCSDS): 27846

Country: DENMARK (DEN)

Current information (Y/N): Y

RCS size: SMALL

Orbital parameters

Period: 101.142 minutes

Inclination: 98.6893 deg

SMA: 7190.887 km

Apoapsis: 818.584 km

Periapsis: 806.92 km

RAAN: 249.6761 deg

Eccentricy: 0.00081104

Argument of periapsis: 288.001 deg

Mean anomaly: 72.0285 deg

Mean motion: 14.23734597 rev/day

Mean motion (dot): 0.0000039 rev/day2

B* drag term: 0.00019000515 1/REarth

Two-line elements (TLE)

Creation date: Aug. 31, 2025, 2:26 a.m.

Reference frame: TEME

Reference center: EARTH

Epoch: Aug. 30, 2025, 5:11 p.m. UTC

TLE line 0: 0 AAU CUBESAT

TLE line 1: 1 27846U 03031G 25242.71617934 .00000390 00000-0 19001-3 0 9993

TLE line 2: 2 27846 98.6893 249.6761 0008110 288.0010 72.0285 14.23734597150359

Live tracking on map

Real-time ground track for satellite AAU CUBESAT.

In-orbit conjunctions

A list of the most updated potential collisions computed for object AAU CUBESAT.

Target Orbit TCA Probability of collision Miss distance Type
FENGYUN 1C DEB SSO 2025-04-18 20:25:50 0.0002483197 412.0 (m) DEBRIS
SL-16 DEB LEO 2025-04-09 21:16:46 0.0006004872 214.0 (m) DEBRIS
DELTA 1 DEB SSO 2025-02-22 12:47:52 0.00161062 286.0 (m) DEBRIS
NOAA 16 DEB SSO 2024-11-04 13:37:09 0.0001082159 64.0 (m) DEBRIS
METEOR 2-8 DEB LEO 2024-08-12 10:03:32 0.0002020907 479.0 (m) DEBRIS

Associated space launch

MIMOSA (Micro Measurements Of Satellite Acceleration) is a microsatellite to measure atmospheric drag.

AAU CUBESAT was lifted into orbit during the mission ‘Rokot / Briz-KM | Mimosa’, on board a Rokot/Briz-KM space rocket.

The launch took place on June 30, 2003, 2:15 p.m. from 133/3 (133L).

For more information about the launch, click the button.

Launch to space Rokot / Briz-KM | Mimosa
Rokot / Briz-KM | Mimosa

Agency: N/A

Status: Launch Successful

Launch date: June 30, 2003, 2:15 p.m. UTC

Rocket: Rokot/Briz-KM

Launch pad: 133/3 (133L)

Location: Plesetsk Cosmodrome, Russian Federation

...

Latest news about this satellite

There are no fresh news available about this satellite. Check back as we update our databases every day.


Newsletter sign-up

Weekly statistics, charts and insights to help you stay on top of the space industry.